| time (UTC) | temp F | wind direction | speed MPH | gust MPH | rain 1hr in | rain 24hr in | rain mn in | humidity % | barometer mb |
| 20260506091043 | 50 | 0 | 0.0 | 1.0 | 0.00 | 0.52 | 0.00 | 95 | 1006.5 |
| 20260506090605 | 50 | 90 | 0.0 | 1.0 | 0.00 | 0.52 | 0.00 | 95 | 1006.5 |
| 20260506090135 | 50 | 90 | 0.0 | 0.0 | 0.00 | 0.52 | 0.00 | 95 | 1006.5 |
| 20260506085725 | 50 | 225 | 0.0 | 1.0 | 0.00 | 0.52 | 0.00 | 95 | 1006.5 |
| 20260506085306 | 50 | 90 | 0.0 | 0.0 | 0.00 | 0.51 | 0.00 | 95 | 1006.5 |
| 20260506084835 | 50 | 0 | 0.0 | 1.0 | 0.00 | 0.51 | 0.00 | 95 | 1006.5 |
| 20260506084405 | 50 | 45 | 0.0 | 1.0 | 0.00 | 0.50 | 0.00 | 95 | 1006.5 |
| 20260506083955 | 50 | 90 | 0.0 | 1.0 | 0.00 | 0.50 | 0.00 | 95 | 1006.5 |
| 20260506083550 | 50 | 0 | 0.0 | 1.0 | 0.00 | 0.50 | 0.00 | 95 | 1006.4 |
| 20260506083130 | 50 | 90 | 0.0 | 0.0 | 0.00 | 0.50 | 0.00 | 95 | 1006.4 |
| 20260506082635 | 50 | 90 | 0.0 | 0.0 | 0.00 | 0.50 | 0.00 | 95 | 1006.5 |
| 20260506082155 | 50 | 90 | 0.0 | 1.0 | 0.00 | 0.49 | 0.00 | 95 | 1006.4 |
| 20260506081745 | 50 | 90 | 0.0 | 0.0 | 0.00 | 0.49 | 0.00 | 95 | 1006.4 |
| 20260506081315 | 50 | 0 | 0.0 | 2.0 | 0.00 | 0.49 | 0.00 | 95 | 1006.4 |
| 20260506080850 | 50 | 180 | 0.0 | 0.0 | 0.00 | 0.48 | 0.00 | 95 | 1006.4 |
| 20260506080355 | 50 | 90 | 0.0 | 1.0 | 0.00 | 0.48 | 0.00 | 95 | 1006.3 |
| 20260506073145 | 49 | 270 | 0.0 | 1.0 | 0.00 | 0.45 | 0.00 | 95 | 1006.2 |
| 20260506072658 | 49 | 0 | 0.0 | 1.0 | 0.00 | 0.45 | 0.00 | 95 | 1006.2 |
| 20260506072250 | 49 | 0 | 0.0 | 0.0 | 0.00 | 0.44 | 0.00 | 94 | 1006.2 |
| 20260506071838 | 49 | 45 | 0.0 | 1.0 | 0.00 | 0.44 | 0.00 | 94 | 1006.2 |
| 20260506071421 | 49 | 0 | 0.0 | 1.0 | 0.00 | 0.43 | 0.00 | 94 | 1006.2 |
| 20260506071008 | 49 | 0 | 0.0 | 0.0 | 0.00 | 0.43 | 0.00 | 94 | 1006.1 |
| 20260506070610 | 49 | 0 | 0.0 | 1.0 | 0.00 | 0.43 | 0.00 | 94 | 1006.1 |
| 20260506070150 | 49 | 270 | 0.0 | 1.0 | 0.00 | 0.42 | 0.00 | 94 | 1006.0 |
| 20260506062450 | 49 | 270 | 0.0 | 1.0 | 0.00 | 0.34 | 0.00 | 94 | 1005.9 |
| 20260506061950 | 49 | 0 | 0.0 | 0.0 | 0.00 | 0.34 | 0.00 | 94 | 1005.8 |
| 20260506061505 | 49 | 270 | 0.0 | 0.0 | 0.00 | 0.34 | 0.00 | 94 | 1005.9 |
| 20260506061055 | 49 | 0 | 0.0 | 1.0 | 0.00 | 0.34 | 0.00 | 94 | 1005.8 |
| 20260506060608 | 49 | 0 | 0.0 | 1.0 | 0.00 | 0.32 | 0.00 | 94 | 1005.8 |
| 20260506060205 | 49 | 0 | 0.0 | 1.0 | 0.00 | 0.32 | 0.00 | 94 | 1005.8 |
| 20260506051405 | 49 | 0 | 0.0 | 1.0 | 0.00 | 0.28 | 0.00 | 94 | 1005.8 |
| 20260506050935 | 49 | 90 | 0.0 | 1.0 | 0.00 | 0.26 | 0.00 | 94 | 1006.0 |
| 20260506050435 | 49 | 90 | 0.0 | 1.0 | 0.00 | 0.26 | 0.00 | 94 | 1005.9 |
| 20260506045058 | 50 | 90 | 0.0 | 1.0 | 0.00 | 0.25 | 0.00 | 94 | 1005.9 |
| 20260506044648 | 50 | 90 | 0.0 | 1.0 | 0.00 | 0.25 | 0.00 | 94 | 1005.9 |
| 20260506044220 | 50 | 0 | 0.0 | 1.0 | 0.00 | 0.25 | 0.00 | 94 | 1005.9 |
| 20260506043818 | 50 | 90 | 0.0 | 0.0 | 0.00 | 0.24 | 0.00 | 94 | 1006.0 |
| 20260506043348 | 50 | 90 | 0.0 | 1.0 | 0.00 | 0.24 | 0.00 | 94 | 1005.9 |
| 20260506042928 | 50 | 0 | 0.0 | 1.0 | 0.00 | 0.24 | 0.00 | 94 | 1005.9 |
| 20260506042438 | 50 | 0 | 0.0 | 0.0 | 0.00 | 0.23 | 0.00 | 94 | 1006.0 |
| 20260506042015 | 50 | 0 | 0.0 | 1.0 | 0.00 | 0.22 | 0.00 | 94 | 1006.1 |
| 20260506041535 | 50 | 135 | 0.0 | 0.0 | 0.00 | 0.22 | 0.00 | 94 | 1006.0 |
| 20260506041135 | 50 | 180 | 0.0 | 1.0 | 0.00 | 0.21 | 0.00 | 94 | 1006.0 |
| 20260506040710 | 50 | 0 | 0.0 | 0.0 | 0.00 | 0.21 | 0.00 | 93 | 1006.0 |
| 20260506040258 | 50 | 270 | 0.0 | 1.0 | 0.00 | 0.19 | 0.00 | 93 | 1006.1 |
| 20260506035855 | 50 | 0 | 0.0 | 0.0 | 0.00 | 0.19 | 0.00 | 93 | 1006.2 |
| 20260506035358 | 50 | 270 | 0.0 | 1.0 | 0.00 | 0.18 | 0.00 | 93 | 1006.3 |
| 20260506034858 | 50 | 0 | 0.0 | 1.0 | 0.00 | 0.17 | 0.00 | 93 | 1006.3 |
| 20260506034500 | 50 | 270 | 0.0 | 1.0 | 0.00 | 0.17 | 0.00 | 93 | 1006.3 |
| 20260506034058 | 50 | 0 | 0.0 | 1.0 | 0.00 | 0.16 | 0.00 | 93 | 1006.2 |
| 20260506033645 | 50 | 180 | 0.0 | 1.0 | 0.00 | 0.16 | 0.00 | 93 | 1006.2 |
| 20260506033218 | 50 | 0 | 0.0 | 0.0 | 0.00 | 0.15 | 0.00 | 93 | 1006.4 |
| 20260506032805 | 50 | 0 | 0.0 | 0.0 | 0.00 | 0.15 | 0.00 | 93 | 1006.4 |
| 20260506032318 | 50 | 90 | 0.0 | 1.0 | 0.00 | 0.12 | 0.00 | 93 | 1006.4 |
| 20260506031818 | 50 | 90 | 0.0 | 0.0 | 0.00 | 0.11 | 0.00 | 93 | 1006.4 |
| 20260506031320 | 50 | 90 | 0.0 | 0.0 | 0.00 | 0.11 | 0.00 | 93 | 1006.4 |
| 20260506030910 | 50 | 90 | 0.0 | 0.0 | 0.00 | 0.10 | 0.00 | 93 | 1006.5 |
| 20260506030430 | 50 | 0 | 0.0 | 2.0 | 0.00 | 0.10 | 0.00 | 93 | 1006.5 |
| 20260506025938 | 51 | 0 | 0.0 | 0.0 | 0.00 | 0.09 | 0.00 | 93 | 1006.6 |
| 20260506025505 | 51 | 0 | 0.0 | 0.0 | 0.00 | 0.08 | 0.00 | 93 | 1006.6 |
| 20260506025055 | 51 | 0 | 0.0 | 1.0 | 0.00 | 0.08 | 0.00 | 93 | 1006.7 |
| 20260506024610 | 51 | 90 | 0.0 | 1.0 | 0.00 | 0.06 | 0.00 | 92 | 1006.7 |
| 20260506024130 | 51 | 315 | 0.0 | 1.0 | 0.00 | 0.06 | 0.00 | 92 | 1006.7 |
| 20260506023718 | 51 | 270 | 0.0 | 1.0 | 0.00 | 0.05 | 0.00 | 92 | 1006.7 |
| 20260506023238 | 51 | 90 | 0.0 | 1.0 | 0.00 | 0.05 | 0.00 | 92 | 1006.8 |
| 20260506022815 | 51 | 45 | 0.0 | 1.0 | 0.00 | 0.05 | 0.00 | 92 | 1006.8 |
| 20260506022410 | 51 | 90 | 0.0 | 1.0 | 0.00 | 0.04 | 0.00 | 92 | 1006.9 |
| 20260506021915 | 51 | 90 | 0.0 | 1.0 | 0.00 | 0.04 | 0.00 | 92 | 1006.9 |
| 20260506021438 | 51 | 0 | 0.0 | 0.0 | 0.00 | 0.03 | 0.00 | 92 | 1006.8 |
| 20260506021009 | 51 | 90 | 0.0 | 1.0 | 0.00 | 0.03 | 0.00 | 92 | 1006.9 |
| 20260506020549 | 51 | 270 | 0.0 | 0.0 | 0.00 | 0.03 | 0.00 | 92 | 1006.9 |
| 20260506020135 | 51 | 270 | 0.0 | 0.0 | 0.00 | 0.03 | 0.00 | 92 | 1006.9 |
| 20260506015710 | 51 | 225 | 0.0 | 1.0 | 0.00 | 0.03 | 0.00 | 92 | 1006.8 |
| 20260506015218 | 51 | 90 | 0.0 | 1.0 | 0.00 | 0.02 | 0.00 | 92 | 1006.9 |
| 20260506014815 | 52 | 90 | 0.0 | 1.0 | 0.00 | 0.02 | 0.00 | 92 | 1006.9 |
| 20260506014345 | 52 | 90 | 0.0 | 1.0 | 0.00 | 0.00 | 0.00 | 92 | 1007.0 |
| 20260506013850 | 52 | 90 | 0.0 | 0.0 | 0.00 | 0.00 | 0.00 | 92 | 1007.0 |
| 20260506013430 | 52 | 90 | 0.0 | 1.0 | 0.00 | 0.00 | 0.00 | 92 | 1007.0 |
| 20260506012945 | 52 | 0 | 0.0 | 1.0 | 0.00 | 0.00 | 0.00 | 92 | 1007.0 |
| 20260506012545 | 52 | 270 | 0.0 | 1.0 | 0.00 | 0.00 | 0.00 | 92 | 1006.9 |
| 20260506012055 | 52 | 90 | 0.0 | 1.0 | 0.00 | 0.00 | 0.00 | 92 | 1006.9 |
| 20260506011635 | 52 | 180 | 0.0 | 1.0 | 0.00 | 0.00 | 0.00 | 92 | 1006.9 |
| 20260506011200 | 52 | 270 | 0.0 | 2.0 | 0.00 | 0.00 | 0.00 | 92 | 1007.0 |
| 20260506010745 | 52 | 90 | 0.0 | 1.0 | 0.00 | 0.00 | 0.00 | 92 | 1007.0 |
| 20260506010330 | 52 | 270 | 0.0 | 1.0 | 0.00 | 0.00 | 0.00 | 92 | 1007.1 |
| 20260506005903 | 52 | 315 | 0.0 | 1.0 | 0.00 | 0.00 | 0.00 | 92 | 1007.2 |
| 20260506005445 | 52 | 90 | 0.0 | 1.0 | 0.00 | 0.00 | 0.00 | 92 | 1007.2 |
| 20260506005035 | 52 | 270 | 0.0 | 1.0 | 0.00 | 0.00 | 0.00 | 92 | 1007.2 |
| 20260506004545 | 52 | 90 | 0.0 | 0.0 | 0.00 | 0.00 | 0.00 | 92 | 1007.3 |
| 20260506004125 | 52 | 270 | 0.0 | 1.0 | 0.00 | 0.00 | 0.00 | 92 | 1007.3 |
| 20260506003635 | 52 | 90 | 0.0 | 0.0 | 0.00 | 0.00 | 0.00 | 92 | 1007.3 |
| 20260506003210 | 52 | 90 | 0.0 | 1.0 | 0.00 | 0.00 | 0.00 | 91 | 1007.3 |
| 20260506002738 | 52 | 0 | 0.0 | 2.0 | 0.00 | 0.00 | 0.00 | 91 | 1007.4 |
| 20260506002338 | 52 | 0 | 0.0 | 1.0 | 0.00 | 0.00 | 0.00 | 91 | 1007.4 |
| 20260506001935 | 52 | 90 | 0.0 | 2.0 | 0.00 | 0.00 | 0.00 | 91 | 1007.5 |
| 20260506001510 | 53 | 90 | 0.0 | 2.0 | 0.00 | 0.00 | 0.00 | 91 | 1007.5 |
| 20260506001105 | 52 | 90 | 0.0 | 0.0 | 0.00 | 0.00 | 0.00 | 91 | 1007.5 |
| 20260506000630 | 52 | 270 | 0.0 | 2.0 | 0.00 | 0.00 | 0.00 | 91 | 1007.5 |
| 20260506000219 | 52 | 270 | 0.0 | 2.0 | 0.00 | 0.00 | 0.00 | 91 | 1007.6 |
| 20260505235735 | 53 | 90 | 0.0 | 2.0 | 0.00 | 0.00 | 0.00 | 91 | 1007.7 |
| 20260505235305 | 53 | 45 | 0.0 | 1.0 | 0.00 | 0.00 | 0.00 | 91 | 1007.7 |
| 20260505234805 | 53 | 0 | 0.0 | 1.0 | 0.00 | 0.00 | 0.00 | 91 | 1007.7 |
| 20260505234335 | 53 | 90 | 0.0 | 2.0 | 0.00 | 0.00 | 0.00 | 91 | 1007.7 |
| 20260505233850 | 53 | 45 | 0.0 | 2.0 | 0.00 | 0.00 | 0.00 | 91 | 1007.7 |
| 20260505233438 | 53 | 90 | 0.0 | 1.0 | 0.00 | 0.00 | 0.00 | 91 | 1007.8 |
| 20260505232945 | 53 | 180 | 0.0 | 1.0 | 0.00 | 0.00 | 0.00 | 91 | 1007.8 |
| 20260505232525 | 53 | 90 | 0.0 | 0.0 | 0.00 | 0.00 | 0.00 | 91 | 1007.8 |
| 20260505232038 | 53 | 90 | 0.0 | 1.0 | 0.00 | 0.00 | 0.00 | 91 | 1007.8 |
| 20260505231616 | 53 | 270 | 0.0 | 1.0 | 0.00 | 0.00 | 0.00 | 90 | 1007.8 |
| 20260505231205 | 53 | 90 | 0.0 | 2.0 | 0.00 | 0.00 | 0.00 | 90 | 1007.8 |
| 20260505230758 | 53 | 90 | 0.0 | 2.0 | 0.00 | 0.00 | 0.00 | 90 | 1007.9 |
| 20260505230305 | 53 | 90 | 0.0 | 1.0 | 0.00 | 0.00 | 0.00 | 90 | 1007.9 |
| 20260505225818 | 53 | 0 | 0.0 | 2.0 | 0.00 | 0.00 | 0.00 | 90 | 1007.9 |
| 20260505225349 | 53 | 90 | 0.0 | 1.0 | 0.00 | 0.00 | 0.00 | 90 | 1008.0 |
| 20260505224915 | 53 | 135 | 0.0 | 2.0 | 0.00 | 0.00 | 0.00 | 90 | 1008.1 |
| 20260505224445 | 53 | 90 | 0.0 | 2.0 | 0.00 | 0.00 | 0.00 | 90 | 1008.0 |
| 20260505224025 | 53 | 45 | 0.0 | 1.0 | 0.00 | 0.00 | 0.00 | 90 | 1008.0 |
| 20260505223544 | 53 | 90 | 0.0 | 1.0 | 0.00 | 0.00 | 0.00 | 90 | 1008.0 |
| 20260505223050 | 53 | 90 | 0.0 | 1.0 | 0.00 | 0.00 | 0.00 | 90 | 1008.1 |
| 20260505222605 | 53 | 90 | 0.0 | 2.0 | 0.00 | 0.00 | 0.00 | 90 | 1008.1 |
| 20260505222202 | 53 | 0 | 0.0 | 1.0 | 0.00 | 0.00 | 0.00 | 90 | 1008.1 |
| 20260505221755 | 53 | 90 | 0.0 | 1.0 | 0.00 | 0.00 | 0.00 | 90 | 1008.2 |
| 20260505221315 | 53 | 90 | 0.0 | 2.0 | 0.00 | 0.00 | 0.00 | 90 | 1008.2 |
| 20260505220910 | 53 | 0 | 0.0 | 0.0 | 0.00 | 0.00 | 0.00 | 90 | 1008.3 |
| 20260505220415 | 53 | 180 | 0.0 | 1.0 | 0.00 | 0.25 | 0.00 | 90 | 1008.3 |
| 20260505215915 | 53 | 90 | 0.0 | 0.0 | 0.00 | 0.25 | 0.00 | 90 | 1008.4 |
| 20260505215435 | 53 | 90 | 0.0 | 1.0 | 0.00 | 0.25 | 0.00 | 90 | 1008.4 |
| 20260505214945 | 53 | 315 | 0.0 | 2.0 | 0.00 | 0.25 | 0.00 | 90 | 1008.5 |
| 20260505214510 | 53 | 90 | 0.0 | 1.0 | 0.00 | 0.25 | 0.00 | 90 | 1008.4 |
| 20260505214055 | 53 | 270 | 0.0 | 2.0 | 0.00 | 0.25 | 0.00 | 90 | 1008.5 |
| 20260505213605 | 53 | 90 | 0.0 | 1.0 | 0.00 | 0.25 | 0.00 | 90 | 1008.5 |
| 20260505213138 | 53 | 90 | 0.0 | 1.0 | 0.00 | 0.25 | 0.00 | 90 | 1008.5 |
| 20260505212710 | 54 | 90 | 0.0 | 2.0 | 0.00 | 0.25 | 0.00 | 90 | 1008.5 |
| 20260505212210 | 54 | 90 | 0.0 | 1.0 | 0.00 | 0.25 | 0.00 | 90 | 1008.5 |
| 20260505211720 | 54 | 90 | 0.0 | 1.0 | 0.00 | 0.25 | 0.00 | 90 | 1008.5 |
| 20260505211250 | 54 | 90 | 0.0 | 1.0 | 0.00 | 0.25 | 0.00 | 90 | 1008.5 |
| 20260505210755 | 54 | 90 | 0.0 | 1.0 | 0.00 | 0.25 | 0.00 | 90 | 1008.5 |
| 20260505210305 | 54 | 180 | 0.0 | 1.0 | 0.00 | 0.25 | 0.00 | 90 | 1008.5 |
| 20260505205838 | 54 | 90 | 0.0 | 2.0 | 0.00 | 0.25 | 0.00 | 90 | 1008.6 |
| 20260505205345 | 54 | 90 | 0.0 | 1.0 | 0.00 | 0.25 | 0.00 | 90 | 1008.6 |
| 20260505204938 | 54 | 45 | 0.0 | 2.0 | 0.00 | 0.25 | 0.00 | 90 | 1008.6 |
| 20260505204530 | 54 | 270 | 0.0 | 1.0 | 0.00 | 0.25 | 0.00 | 90 | 1008.6 |
| 20260505204035 | 54 | 180 | 0.0 | 1.0 | 0.00 | 0.25 | 0.00 | 90 | 1008.6 |
| 20260505203555 | 54 | 0 | 0.0 | 1.0 | 0.00 | 0.25 | 0.00 | 90 | 1008.6 |
| 20260505203140 | 54 | 45 | 0.0 | 1.0 | 0.00 | 0.25 | 0.00 | 90 | 1008.6 |
| 20260505202736 | 54 | 0 | 0.0 | 1.0 | 0.00 | 0.25 | 0.00 | 90 | 1008.5 |
| 20260505202306 | 54 | 90 | 0.0 | 2.0 | 0.00 | 0.25 | 0.00 | 90 | 1008.7 |
| 20260505201805 | 54 | 90 | 0.0 | 1.0 | 0.00 | 0.25 | 0.00 | 90 | 1008.7 |
| 20260505201400 | 54 | 135 | 0.0 | 1.0 | 0.00 | 0.25 | 0.00 | 90 | 1008.7 |
| 20260505200930 | 54 | 0 | 0.0 | 1.0 | 0.00 | 0.25 | 0.00 | 90 | 1008.7 |
| 20260505200449 | 54 | 180 | 0.0 | 1.0 | 0.00 | 0.25 | 0.00 | 90 | 1008.8 |
| 20260505200010 | 54 | 180 | 0.0 | 1.0 | 0.00 | 0.25 | 0.00 | 90 | 1008.8 |
| 20260505195515 | 54 | 0 | 0.0 | 2.0 | 0.00 | 0.25 | 0.00 | 90 | 1008.8 |
| 20260505195015 | 54 | 135 | 0.0 | 1.0 | 0.00 | 0.25 | 0.00 | 90 | 1008.7 |
| 20260505194555 | 55 | 270 | 0.0 | 1.0 | 0.00 | 0.25 | 0.00 | 90 | 1008.7 |
| 20260505194105 | 55 | 90 | 0.0 | 1.0 | 0.00 | 0.25 | 0.00 | 90 | 1008.7 |
| 20260505193625 | 55 | 270 | 0.0 | 1.0 | 0.00 | 0.25 | 0.00 | 90 | 1008.8 |
| 20260505193210 | 55 | 45 | 0.0 | 2.0 | 0.00 | 0.25 | 0.00 | 90 | 1008.7 |
| 20260505192735 | 55 | 135 | 0.0 | 1.0 | 0.00 | 0.25 | 0.00 | 90 | 1008.8 |
| 20260505192238 | 55 | 270 | 0.0 | 1.0 | 0.00 | 0.25 | 0.00 | 90 | 1008.8 |
| 20260505191818 | 55 | 90 | 0.0 | 1.0 | 0.00 | 0.25 | 0.00 | 90 | 1008.8 |
| 20260505191400 | 55 | 90 | 0.0 | 2.0 | 0.00 | 0.25 | 0.00 | 90 | 1008.7 |
| 20260505190905 | 55 | 90 | 0.0 | 1.0 | 0.00 | 0.25 | 0.00 | 89 | 1008.8 |
| 20260505190410 | 55 | 90 | 0.0 | 1.0 | 0.00 | 0.25 | 0.00 | 89 | 1008.8 |
| 20260505185945 | 55 | 90 | 0.0 | 1.0 | 0.00 | 0.25 | 0.00 | 89 | 1008.7 |
| 20260505185455 | 55 | 90 | 0.0 | 1.0 | 0.00 | 0.25 | 0.00 | 89 | 1008.7 |
| 20260505185035 | 55 | 270 | 0.0 | 1.0 | 0.00 | 0.25 | 0.00 | 89 | 1008.7 |
| 20260505184624 | 55 | 90 | 0.0 | 1.0 | 0.00 | 0.25 | 0.00 | 89 | 1008.7 |
| 20260505184130 | 55 | 90 | 0.0 | 1.0 | 0.00 | 0.25 | 0.00 | 89 | 1008.7 |
| 20260505183715 | 55 | 270 | 0.0 | 1.0 | 0.00 | 0.25 | 0.00 | 89 | 1008.6 |
| 20260505183250 | 55 | 90 | 0.0 | 1.0 | 0.00 | 0.25 | 0.00 | 89 | 1008.6 |
| 20260505182825 | 55 | 270 | 0.0 | 1.0 | 0.00 | 0.25 | 0.00 | 89 | 1008.6 |
| 20260505182422 | 55 | 135 | 0.0 | 2.0 | 0.00 | 0.25 | 0.00 | 89 | 1008.6 |
| 20260505181955 | 55 | 90 | 0.0 | 1.0 | 0.00 | 0.25 | 0.00 | 89 | 1008.5 |
| 20260505181510 | 55 | 45 | 0.0 | 2.0 | 0.00 | 0.25 | 0.00 | 89 | 1008.5 |
| 20260505181025 | 55 | 90 | 0.0 | 2.0 | 0.00 | 0.25 | 0.00 | 89 | 1008.6 |
| 20260505180545 | 56 | 90 | 0.0 | 2.0 | 0.00 | 0.25 | 0.00 | 89 | 1008.6 |
| 20260505180130 | 56 | 90 | 0.0 | 2.0 | 0.00 | 0.25 | 0.00 | 89 | 1008.7 |
| 20260505175710 | 56 | 90 | 0.0 | 1.0 | 0.00 | 0.25 | 0.00 | 89 | 1008.7 |
| 20260505175210 | 56 | 90 | 0.0 | 1.0 | 0.00 | 0.25 | 0.00 | 89 | 1008.8 |
| 20260505174809 | 56 | 45 | 0.0 | 1.0 | 0.00 | 0.25 | 0.00 | 89 | 1008.7 |
| 20260505174335 | 56 | 270 | 0.0 | 0.0 | 0.00 | 0.25 | 0.00 | 89 | 1008.7 |
| 20260505173840 | 56 | 90 | 0.0 | 1.0 | 0.00 | 0.25 | 0.00 | 89 | 1008.6 |
| 20260505173355 | 56 | 45 | 0.0 | 1.0 | 0.00 | 0.25 | 0.00 | 89 | 1008.6 |
| 20260505172936 | 56 | 90 | 0.0 | 1.0 | 0.00 | 0.25 | 0.00 | 89 | 1008.7 |
| 20260505172535 | 56 | 270 | 0.0 | 2.0 | 0.00 | 0.25 | 0.00 | 89 | 1008.7 |
| 20260505172038 | 56 | 90 | 0.0 | 1.0 | 0.00 | 0.25 | 0.00 | 89 | 1008.7 |
| 20260505171605 | 56 | 180 | 0.0 | 1.0 | 0.00 | 0.25 | 0.00 | 89 | 1008.7 |
| 20260505171125 | 56 | 0 | 0.0 | 0.0 | 0.00 | 0.25 | 0.00 | 88 | 1008.7 |
| 20260505170715 | 56 | 0 | 0.0 | 2.0 | 0.00 | 0.25 | 0.00 | 88 | 1008.7 |
| 20260505170315 | 56 | 90 | 0.0 | 1.0 | 0.00 | 0.25 | 0.00 | 88 | 1008.7 |
| 20260505165915 | 56 | 0 | 0.0 | 1.0 | 0.00 | 0.25 | 0.00 | 88 | 1008.8 |
| 20260505165450 | 56 | 315 | 0.0 | 2.0 | 0.00 | 0.25 | 0.00 | 88 | 1008.8 |
| 20260505165035 | 56 | 180 | 0.0 | 1.0 | 0.00 | 0.25 | 0.00 | 88 | 1008.8 |
| 20260505164538 | 56 | 0 | 0.0 | 2.0 | 0.00 | 0.25 | 0.00 | 88 | 1008.9 |
| 20260505164043 | 56 | 90 | 0.0 | 2.0 | 0.00 | 0.25 | 0.00 | 88 | 1008.9 |
| 20260505163645 | 56 | 0 | 0.0 | 2.0 | 0.00 | 0.25 | 0.00 | 88 | 1008.9 |
| 20260505163240 | 57 | 0 | 0.0 | 2.0 | 0.00 | 0.25 | 0.00 | 88 | 1008.9 |
| 20260505162805 | 57 | 0 | 0.0 | 1.0 | 0.00 | 0.25 | 0.00 | 88 | 1008.9 |
| 20260505162315 | 57 | 315 | 0.0 | 2.0 | 0.00 | 0.25 | 0.00 | 88 | 1009.0 |
| 20260505161818 | 57 | 0 | 0.0 | 2.0 | 0.00 | 0.25 | 0.00 | 88 | 1009.0 |
| 20260505161345 | 57 | 0 | 0.0 | 0.0 | 0.00 | 0.25 | 0.00 | 88 | 1009.0 |
| 20260505160935 | 57 | 225 | 0.0 | 2.0 | 0.00 | 0.25 | 0.00 | 88 | 1009.0 |
| 20260505160500 | 57 | 0 | 0.0 | 2.0 | 0.00 | 0.25 | 0.00 | 88 | 1009.0 |
| 20260505152938 | 58 | 180 | 0.0 | 2.0 | 0.00 | 0.25 | 0.00 | 87 | 1009.2 |
| 20260505152505 | 58 | 270 | 0.0 | 2.0 | 0.00 | 0.25 | 0.00 | 87 | 1009.2 |
| 20260505152018 | 58 | 0 | 0.0 | 2.0 | 0.00 | 0.25 | 0.00 | 87 | 1009.1 |
| 20260505151602 | 58 | 0 | 0.0 | 2.0 | 0.00 | 0.25 | 0.00 | 87 | 1009.1 |
| 20260505151205 | 58 | 45 | 0.0 | 2.0 | 0.00 | 0.25 | 0.00 | 87 | 1009.1 |
| 20260505150715 | 59 | 0 | 0.0 | 2.0 | 0.00 | 0.25 | 0.00 | 87 | 1009.2 |
| 20260505150215 | 58 | 90 | 0.0 | 1.0 | 0.00 | 0.25 | 0.00 | 87 | 1009.2 |
| 20260505140245 | 60 | 270 | 0.0 | 2.0 | 0.00 | 0.25 | 0.00 | 87 | 1009.4 |
| 20260505124638 | 59 | 0 | 0.0 | 1.0 | 0.00 | 0.25 | 0.00 | 88 | 1009.7 |
| 20260505124155 | 59 | 0 | 0.0 | 1.0 | 0.00 | 0.25 | 0.00 | 88 | 1009.6 |
| 20260505123710 | 59 | 0 | 0.0 | 1.0 | 0.00 | 0.25 | 0.00 | 88 | 1009.7 |
| 20260505123215 | 59 | 0 | 0.0 | 0.0 | 0.00 | 0.25 | 0.00 | 87 | 1009.7 |
| 20260505122810 | 59 | 45 | 0.0 | 1.0 | 0.00 | 0.25 | 0.00 | 87 | 1009.7 |
| 20260505122325 | 59 | 0 | 0.0 | 1.0 | 0.00 | 0.25 | 0.00 | 87 | 1009.7 |
| 20260505121835 | 59 | 90 | 0.0 | 1.0 | 0.00 | 0.25 | 0.00 | 87 | 1009.7 |
| 20260505121435 | 59 | 0 | 0.0 | 2.0 | 0.00 | 0.25 | 0.00 | 87 | 1009.7 |
| 20260505121030 | 60 | 315 | 0.0 | 2.0 | 0.00 | 0.25 | 0.00 | 87 | 1009.7 |
| 20260505120540 | 60 | 90 | 0.0 | 1.0 | 0.00 | 0.25 | 0.00 | 87 | 1009.7 |
| 20260505120118 | 60 | 90 | 0.0 | 1.0 | 0.00 | 0.25 | 0.00 | 87 | 1009.6 |
| 20260505115645 | 60 | 0 | 0.0 | 2.0 | 0.00 | 0.25 | 0.00 | 87 | 1009.6 |
| 20260505115215 | 60 | 0 | 0.0 | 1.0 | 0.00 | 0.25 | 0.00 | 87 | 1009.6 |
| 20260505114735 | 60 | 270 | 0.0 | 1.0 | 0.00 | 0.25 | 0.00 | 87 | 1009.7 |
| 20260505114305 | 60 | 0 | 0.0 | 1.0 | 0.00 | 0.25 | 0.00 | 87 | 1009.7 |
| 20260505113810 | 60 | 90 | 0.0 | 0.0 | 0.00 | 0.25 | 0.00 | 87 | 1009.8 |
| 20260505113355 | 60 | 90 | 0.0 | 2.0 | 0.00 | 0.25 | 0.00 | 87 | 1009.7 |
| 20260505112930 | 60 | 0 | 0.0 | 1.0 | 0.00 | 0.25 | 0.00 | 87 | 1009.8 |
| 20260505112510 | 60 | 0 | 0.0 | 1.0 | 0.00 | 0.25 | 0.00 | 87 | 1009.8 |
| 20260505112015 | 60 | 270 | 0.0 | 1.0 | 0.00 | 0.25 | 0.00 | 87 | 1009.8 |
| 20260505111515 | 60 | 0 | 0.0 | 1.0 | 0.00 | 0.25 | 0.00 | 87 | 1009.8 |
| 20260505111038 | 60 | 0 | 0.0 | 1.0 | 0.00 | 0.25 | 0.00 | 87 | 1009.8 |
| 20260505110605 | 60 | 0 | 0.0 | 1.0 | 0.00 | 0.25 | 0.00 | 87 | 1009.8 |
| 20260505110150 | 60 | 0 | 0.0 | 1.0 | 0.00 | 0.25 | 0.00 | 87 | 1010.0 |
| 20260505102200 | 61 | 0 | 0.0 | 1.0 | 0.00 | 0.25 | 0.00 | 87 | 1009.9 |
| 20260505101705 | 61 | 270 | 0.0 | 0.0 | 0.00 | 0.25 | 0.00 | 87 | 1010.0 |
| 20260505101210 | 61 | 0 | 0.0 | 0.0 | 0.00 | 0.25 | 0.00 | 87 | 1009.9 |
| 20260505100800 | 61 | 315 | 0.0 | 1.0 | 0.00 | 0.25 | 0.00 | 88 | 1010.0 |
| 20260505100338 | 61 | 0 | 0.0 | 1.0 | 0.00 | 0.25 | 0.00 | 88 | 1010.0 |
| 20260505095845 | 61 | 0 | 0.0 | 1.0 | 0.00 | 0.25 | 0.00 | 89 | 1010.0 |
| 20260505095358 | 61 | 0 | 0.0 | 1.0 | 0.00 | 0.25 | 0.00 | 89 | 1010.0 |
| 20260505094935 | 60 | 0 | 0.0 | 0.0 | 0.00 | 0.25 | 0.00 | 88 | 1010.1 |
| 20260505094525 | 60 | 0 | 0.0 | 1.0 | 0.00 | 0.25 | 0.00 | 88 | 1010.1 |
| 20260505094118 | 60 | 0 | 0.0 | 0.0 | 0.00 | 0.25 | 0.00 | 88 | 1010.2 |
| 20260505093718 | 60 | 0 | 0.0 | 0.0 | 0.00 | 0.25 | 0.00 | 88 | 1010.1 |
| 20260505093235 | 60 | 0 | 0.0 | 1.0 | 0.00 | 0.25 | 0.00 | 89 | 1010.2 |
| 20260505092815 | 60 | 0 | 0.0 | 1.0 | 0.00 | 0.25 | 0.00 | 89 | 1010.2 |
| 20260505092315 | 60 | 0 | 0.0 | 1.0 | 0.00 | 0.25 | 0.00 | 89 | 1010.2 |
| 20260505091915 | 60 | 0 | 0.0 | 1.0 | 0.00 | 0.25 | 0.00 | 89 | 1010.1 |